Home   Weather   Husum   Past weeks
Flag for Germany

Past Weather in Husum, Schleswig-Holstein, Germany — Yesterday and Last 2 Weeks

Now
55 °F

Cool.


Feels Like: 53 °F
Forecast: 66 / 56 °F
Wind: 9 mph from East

Location: Schleswig-Jagel

Current Time: Sep 23, 2019 at 2:45:50 am

Latest Report: Sep 23, 2019 at 1:20 am


Visibility: 5 mi

Pressure: 29.86 "Hg

Humidity: 88%

Dew Point: 52 °F

Location of HusumLocation

Past Weather in Husum — Graph

°F

Husum Temperature Yesterday

Maximum temperature yesterday: 72 °F (at 2:20 pm)
Minimum temperature yesterday: 45 °F (at 7:20 am)
Average temperature yesterday: 58 °F

High & Low Weather Summary for the Past Weeks

 TemperatureHumidityPressure
High72 °F (Sep 22, 2:20 pm)100% (Sep 8, 1:20 am)30.54 "Hg (Sep 8, 1:20 am)
Low41 °F (Sep 19, 4:20 am)44% (Sep 22, 2:20 pm)29.83 "Hg (Sep 22, 4:20 pm)
Average55 °F83%30.12 "Hg
* Reported Sep 8 1:20 am — Sep 23 1:20 am, Husum. Weather by CustomWeather, © 2019

Note: Actual official high and low records may vary slightly from our data, if they occured in-between our weather recording intervals... More about our weather records

Advertising

Husum Weather History for the Previous 24 Hours

Scroll right to see more
 ConditionsComfort  
Time TempWeatherWind HumidityBarometerVisibility
1:20 am
Mon, Sep 23
55 °FCool.9 mph88%29.86 "Hg5 mi
12:20 am54 °FCool.8 mph94%29.86 "HgN/A
11:20 pm
Sun, Sep 22
54 °FCool.5 mph94%29.83 "Hg6 mi
10:20 pm55 °FCool.6 mph88%29.83 "Hg6 mi
9:20 pm55 °FCool.8 mph88%29.83 "Hg6 mi
8:20 pm57 °FCool.8 mph82%29.83 "HgN/A
7:20 pm61 °FCool.8 mph77%29.83 "HgN/A
6:20 pm64 °FMild.9 mph68%29.83 "HgN/A
5:20 pm70 °FMild.10 mph57%29.83 "HgN/A
4:20 pm72 °FMild.10 mph50%29.83 "HgN/A
3:20 pm72 °FMild.10 mph50%29.86 "HgN/A
2:20 pm72 °FMild.12 mph44%29.86 "HgN/A
1:20 pm70 °FMild.10 mph50%29.89 "HgN/A
12:20 pm68 °FMild.12 mph53%29.89 "HgN/A
11:20 am64 °FMild.8 mph60%29.92 "HgN/A
10:20 am61 °FCool.8 mph68%29.92 "HgN/A
9:20 am57 °FCool.7 mph77%29.92 "HgN/A
8:20 am50 °FCool.5 mph100%29.95 "HgN/A
7:20 am45 °FQuite cool.5 mph100%29.95 "Hg5 mi
6:20 am46 °FCool.6 mph100%29.95 "Hg6 mi
5:20 am46 °FCool.5 mph93%29.98 "Hg5 mi
4:20 am46 °FCool.5 mph100%29.98 "Hg2 mi
3:20 am50 °FCool.5 mph100%30.01 "Hg6 mi
2:20 am48 °FCool.3 mph100%30.01 "Hg5 mi
Weather by CustomWeather, © 2019

See weather overview